sat.trackr.live / text

‹ back to catalog

STARLINK-2523

NORAD 48306 · 2021-036AG

PAYLOAD ACTIVE UNKNOWN

§ Identity

Operator
Country
US
Launch date
2021-04-29
Launch site
AFETR
Launch vehicle
Mass (kg)
RCS (m²)

Purposes: comms

External: N2YO · Heavens-Above · Gunter

§ Orbital elements

Epoch: 2026-05-25T04:01:43.415040Z

Period
94.01 min
Inclination
53.1596°
Eccentricity
0.0001175
Mean motion
15.31705233 rev/d
Perigee alt
469.9 km
Apogee alt
471.5 km
Semi-major
6,848.9 km
B*
3.0568e-5
RAAN
103.3203°
Arg perigee
89.2484°
Mean anomaly
270.8652°
Rev number
27,977

§ Raw data

STARLINK-25231 48306U 21036AG  26145.16786360  .00000584  00000+0  30568-4 0  99902 48306  53.1596 103.3203 0001175  89.2484 270.8652 15.31705233279775

JSON: /api/v1/satellites/48306 · /tle

For live sub-satellite position, see the globe view (requires WebGL).

§ Visibility from observer

Set your observer location to see the next 7 days of passes ≥ 10°. The values pass through the URL so the page stays shareable.

No JS? Fill the form by hand. The geolocation button needs JavaScript.